Location: Sternwarte ZA, Rosenfeld-Brittheim
(48.2889°N, 8.6789°E)
Time: 06:07:38
(UTC+02:00)

ISS - Pass Details

Date: 23 September 2020
Orbit: 419 x 420 km, 51.6° (Epoch: 21 September)

Event Time Altitude Azimuth Distance (km) Brightness Sun altitude
Rises 22:30:47 0° 286° (WNW) 2,370 1.0 -30.3°
Reaches altitude 10° 22:32:55 10° 292° (WNW) 1,505 -0.1 -30.5°
Enters shadow 22:33:21 13° 294° (WNW) 1,335 -0.5 -30.6°
